Simultaneous Nadir Overpasses (SNOs) Predictions

Prediction of SNOs between GOES-17 and LANDSAT-8 Satellite Orbit:

Table of predicted SNOs for the next 14.0 days since TLE Epoch: 2/12/2022
Index Date Time (GOES-17) GOES-17 Lat,Lon LANDSAT-8 Lat,Lon Distance(km) Time Diff (sec)
1 02/12/2022 07:25:41 -0.02,-137.20 -0.19,-137.95 85.44 80
2 02/14/2022 07:10:49 -0.02,-137.18 0.45,-134.99 249.55 80
3 02/14/2022 19:32:04 0.03,-137.19 0.66,-140.14 336.59 80
4 02/16/2022 19:19:52 0.02,-137.17 0.01,-137.19 2.81 80
5 02/18/2022 19:10:19 0.02,-137.14 -0.58,-134.23 331.58 80
6 02/19/2022 07:31:43 -0.02,-137.13 -0.52,-139.42 259.93 80
7 02/21/2022 07:16:50 -0.02,-137.10 0.09,-136.45 73.42 80
8 02/23/2022 07:04:38 -0.02,-137.07 0.76,-133.50 405.65 80
9 02/23/2022 19:25:53 0.02,-137.06 0.34,-138.66 181.55 80
10 02/25/2022 19:16:20 0.00,-137.01 -0.28,-135.70 149.35 80
